FW3849 Weather Reports


Display with metric or nautical units.
time (UTC)temp
F
wind
direction
speed
MPH
gust
MPH
rain 1hr
in
rain 24hr
in
rain mn
in
humidity
%
barometer
mb
20260904221533 100 135 8.0 17.0 0.00 0.00 0.00 21 1006.2
20260904221013 100 165 3.0 11.0 0.00 0.00 0.00 22 1006.3
20260904220513 100 122 5.0 15.0 0.00 0.00 0.00 23 1006.3
20260904220012 100 202 9.0 15.0 0.00 0.00 0.00 22 1006.4
20260904215512 100 204 10.0 15.0 0.00 0.00 0.00 22 1006.5
20260904215011 101 189 8.0 15.0 0.00 0.00 0.00 21 1006.5
20260904214515 101 200 6.0 13.0 0.00 0.00 0.00 22 1006.4
20260904214014 101 137 5.0 9.0 0.00 0.00 0.00 21 1006.4
20260904213015 100 117 3.0 8.0 0.00 0.00 0.00 20 1006.5
20260904212510 100 244 5.0 14.0 0.00 0.00 0.00 18 1006.7
20260904212009 100 222 5.0 15.0 0.00 0.00 0.00 20 1006.8
20260904211509 100 239 7.0 11.0 0.00 0.00 0.00 20 1006.8
20260904211011 100 211 4.0 10.0 0.00 0.00 0.00 21 1006.9
20260904210507 100 89 2.0 12.0 0.00 0.00 0.00 21 1007.0
20260904210006 100 183 7.0 14.0 0.00 0.00 0.00 22 1007.3
20260904205505 100 186 9.0 14.0 0.00 0.00 0.00 22 1007.3
20260904205003 100 127 2.0 11.0 0.00 0.00 0.00 22 1007.4
20260904204505 100 188 4.0 11.0 0.00 0.00 0.00 21 1007.6
20260904204006 99 207 4.0 11.0 0.00 0.00 0.00 21 1007.7
20260904203056 99 189 6.0 12.0 0.00 0.00 0.00 21 1007.9
20260904202556 98 110 3.0 12.0 0.00 0.00 0.00 23 1007.9
20260904202054 98 164 5.0 11.0 0.00 0.00 0.00 23 1008.0
20260904201555 98 244 4.0 10.0 0.00 0.00 0.00 24 1008.0
20260904201055 98 199 4.0 11.0 0.00 0.00 0.00 23 1008.1
20260904200555 98 198 3.0 10.0 0.00 0.00 0.00 25 1008.2
20260904200121 98 194 5.0 10.0 0.00 0.00 0.00 25 1008.3
20260904195552 99 220 4.0 9.0 0.00 0.00 0.00 26 1008.4
20260904195054 99 179 4.0 10.0 0.00 0.00 0.00 25 1008.4
20260904194630 98 70 3.0 10.0 0.00 0.00 0.00 27 1008.5
20260904194049 98 131 1.0 9.0 0.00 0.00 0.00 26 1008.4
20260904193055 98 211 5.0 12.0 0.00 0.00 0.00 27 1008.6
20260904192553 98 77 3.0 9.0 0.00 0.00 0.00 28 1008.7
20260904192055 97 138 3.0 6.0 0.00 0.00 0.00 28 1008.8
20260904191558 97 150 2.0 10.0 0.00 0.00 0.00 28 1008.8
20260904191050 97 142 4.0 10.0 0.00 0.00 0.00 28 1008.9
20260904190548 97 150 3.0 9.0 0.00 0.00 0.00 29 1009.0
20260904190052 97 211 4.0 9.0 0.00 0.00 0.00 29 1009.1
20260904185545 96 88 2.0 5.0 0.00 0.00 0.00 30 1009.2
20260904185044 96 146 2.0 8.0 0.00 0.00 0.00 30 1009.3
20260904184550 96 127 3.0 6.0 0.00 0.00 0.00 30 1009.3
20260904184041 96 189 5.0 11.0 0.00 0.00 0.00 30 1009.3
20260904183032 96 145 4.0 13.0 0.00 0.00 0.00 31 1009.5
20260904182536 95 56 3.0 13.0 0.00 0.00 0.00 32 1009.6
20260904182032 95 236 4.0 10.0 0.00 0.00 0.00 32 1009.7
20260904181531 95 216 2.0 8.0 0.00 0.00 0.00 32 1009.8
20260904181031 95 229 4.0 8.0 0.00 0.00 0.00 32 1009.9
20260904180532 94 193 3.0 9.0 0.00 0.00 0.00 34 1009.9
20260904180031 95 206 4.0 9.0 0.00 0.00 0.00 34 1010.0
20260904175530 94 185 2.0 6.0 0.00 0.00 0.00 34 1010.0
20260904175028 94 183 2.0 7.0 0.00 0.00 0.00 34 1010.1
20260904174526 94 252 1.0 8.0 0.00 0.00 0.00 34 1010.2
20260904174025 93 256 1.0 6.0 0.00 0.00 0.00 34 1010.4
20260904173035 93 198 3.0 8.0 0.00 0.00 0.00 34 1010.5
20260904172529 93 297 4.0 8.0 0.00 0.00 0.00 35 1010.5
20260904172029 93 301 2.0 7.0 0.00 0.00 0.00 35 1010.6
20260904171538 93 215 3.0 7.0 0.00 0.00 0.00 35 1010.7
20260904171025 93 350 1.0 6.0 0.00 0.00 0.00 34 1010.6
20260904170527 93 334 3.0 6.0 0.00 0.00 0.00 35 1010.6
20260904170023 91 7 2.0 9.0 0.00 0.00 0.00 38 1010.7
20260904165522 90 238 3.0 9.0 0.00 0.00 0.00 39 1010.7
20260904165022 90 256 3.0 9.0 0.00 0.00 0.00 40 1010.8
20260904164524 90 249 3.0 8.0 0.00 0.00 0.00 39 1010.9
20260904164025 89 156 1.0 5.0 0.00 0.00 0.00 41 1010.8
20260904163021 89 257 3.0 8.0 0.00 0.00 0.00 43 1010.7
20260904162521 88 239 3.0 7.0 0.00 0.00 0.00 45 1010.6
20260904162024 87 211 3.0 8.0 0.00 0.00 0.00 46 1010.7
20260904161523 87 200 5.0 8.0 0.00 0.00 0.00 47 1010.8
20260904161019 87 257 5.0 10.0 0.00 0.00 0.00 47 1010.7
20260904160519 86 227 6.0 10.0 0.00 0.00 0.00 48 1010.7
20260904160020 86 252 6.0 9.0 0.00 0.00 0.00 49 1010.7
20260904155518 86 234 3.0 9.0 0.00 0.00 0.00 50 1010.7
20260904155017 85 231 5.0 10.0 0.00 0.00 0.00 50 1010.7
20260904154517 85 215 4.0 11.0 0.00 0.00 0.00 51 1010.5
20260904154017 85 196 4.0 11.0 0.00 0.00 0.00 52 1010.6
20260904153022 84 219 7.0 11.0 0.00 0.00 0.00 53 1010.6
20260904152514 84 231 6.0 10.0 0.00 0.00 0.00 53 1010.7
20260904152013 84 200 4.0 9.0 0.00 0.00 0.00 54 1010.6
20260904151525 83 198 6.0 10.0 0.00 0.00 0.00 55 1010.6
20260904151013 83 214 6.0 10.0 0.00 0.00 0.00 55 1010.6
20260904150513 83 229 5.0 9.0 0.00 0.00 0.00 55 1010.8
20260904150013 83 225 4.0 9.0 0.00 0.00 0.00 55 1010.8
20260904145513 82 223 6.0 9.0 0.00 0.00 0.00 56 1010.9
20260904145013 82 234 4.0 9.0 0.00 0.00 0.00 56 1010.9
20260904144512 82 175 5.0 9.0 0.00 0.00 0.00 56 1011.0
20260904144013 82 197 6.0 10.0 0.00 0.00 0.00 57 1011.0
20260904143013 81 206 7.0 11.0 0.00 0.00 0.00 57 1010.9
20260904142514 81 203 5.0 10.0 0.00 0.00 0.00 58 1010.9
20260904142013 81 206 6.0 10.0 0.00 0.00 0.00 58 1011.0
20260904141513 81 229 6.0 10.0 0.00 0.00 0.00 58 1010.8
20260904141017 81 209 6.0 12.0 0.00 0.00 0.00 58 1010.9
20260904140512 81 191 7.0 12.0 0.00 0.00 0.00 58 1010.7
20260904140012 81 193 8.0 11.0 0.00 0.00 0.00 58 1010.8
20260904135513 81 210 3.0 9.0 0.00 0.00 0.00 58 1011.0
20260904135011 81 187 5.0 9.0 0.00 0.00 0.00 58 1011.0
20260904134509 81 223 5.0 9.0 0.00 0.00 0.00 58 1010.8
20260904134009 81 244 4.0 9.0 0.00 0.00 0.00 58 1010.8
20260904133019 80 230 5.0 8.0 0.00 0.00 0.00 59 1010.6
20260904132517 80 177 2.0 7.0 0.00 0.00 0.00 59 1010.6
20260904132015 80 150 3.0 7.0 0.00 0.00 0.00 59 1010.4
20260904131515 80 200 3.0 6.0 0.00 0.00 0.00 59 1010.1
20260904131013 80 173 3.0 8.0 0.00 0.00 0.00 60 1010.0
20260904130512 79 196 5.0 8.0 0.00 0.00 0.00 60 1009.9
20260904130012 79 183 4.0 9.0 0.00 0.00 0.00 60 1009.9
20260904125512 79 190 5.0 9.0 0.00 0.00 0.00 60 1009.8
20260904125012 79 172 2.0 5.0 0.00 0.00 0.00 60 1009.8
20260904124511 79 187 2.0 4.0 0.00 0.00 0.00 60 1009.7
20260904124009 79 188 2.0 4.0 0.00 0.00 0.00 59 1009.6
20260904123001 79 189 2.0 5.0 0.00 0.00 0.00 59 1009.6
20260904122503 79 189 2.0 5.0 0.00 0.00 0.00 59 1009.5
20260904122101 79 190 2.0 5.0 0.00 0.00 0.00 59 1009.4
20260904121600 79 190 3.0 7.0 0.00 0.00 0.00 58 1009.4
20260904121059 80 161 2.0 7.0 0.00 0.00 0.00 58 1009.2
20260904120558 80 180 2.0 5.0 0.00 0.00 0.00 58 1009.3
20260904120058 80 180 2.0 5.0 0.00 0.00 0.00 57 1009.2
20260904115556 80 184 2.0 5.0 0.00 0.00 0.00 57 1009.2
20260904115156 80 183 2.0 6.0 0.00 0.00 0.00 57 1009.1
20260904114556 80 183 4.0 8.0 0.00 0.00 0.00 57 1009.2
20260904114055 80 194 3.0 8.0 0.00 0.00 0.00 57 1009.1
20260904113054 81 195 3.0 8.0 0.00 0.00 0.00 56 1009.1
20260904112552 81 199 4.0 8.0 0.00 0.00 0.00 56 1009.1
20260904112052 81 187 4.0 10.0 0.00 0.00 0.00 56 1009.2
20260904111552 81 206 7.0 13.0 0.00 0.00 0.00 55 1009.0
20260904111051 81 201 6.0 10.0 0.00 0.00 0.00 55 1009.0
20260904110552 82 202 7.0 12.0 0.00 0.00 0.00 55 1009.0
20260904110048 82 208 6.0 15.0 0.00 0.00 0.00 55 1009.0
20260904105547 82 198 9.0 15.0 0.00 0.00 0.00 55 1008.9
20260904105045 81 188 9.0 15.0 0.00 0.00 0.00 55 1009.0
20260904104545 81 206 7.0 12.0 0.00 0.00 0.00 55 1009.1
20260904104046 81 185 5.0 9.0 0.00 0.00 0.00 55 1009.1
20260904103049 81 187 3.0 5.0 0.00 0.00 0.00 54 1009.1
20260904102541 82 194 3.0 5.0 0.00 0.00 0.00 54 1009.2
20260904102039 82 194 3.0 8.0 0.00 0.00 0.00 53 1009.1
20260904101538 82 195 4.0 8.0 0.00 0.00 0.00 53 1009.1
20260904101037 82 182 2.0 10.0 0.00 0.00 0.00 53 1009.0
20260904100537 82 193 3.0 12.0 0.00 0.00 0.00 52 1008.9
20260904100037 83 184 6.0 13.0 0.00 0.00 0.00 53 1008.9
20260904095536 83 154 8.0 15.0 0.00 0.00 0.00 52 1008.8
20260904095036 83 210 10.0 15.0 0.00 0.00 0.00 52 1008.8
20260904094535 83 209 10.0 15.0 0.00 0.00 0.00 52 1008.7
20260904094034 83 207 8.0 12.0 0.00 0.00 0.00 51 1008.8
20260904093039 83 215 8.0 15.0 0.00 0.00 0.00 50 1008.7
20260904092536 84 204 9.0 16.0 0.00 0.00 0.00 50 1008.7
20260904092036 84 208 9.0 16.0 0.00 0.00 0.00 49 1008.6
20260904091539 84 199 8.0 17.0 0.00 0.00 0.00 49 1008.8
20260904091035 84 211 9.0 17.0 0.00 0.00 0.00 48 1008.8
20260904090535 84 210 8.0 15.0 0.00 0.00 0.00 48 1008.6
20260904090041 84 201 8.0 16.0 0.00 0.00 0.00 47 1008.6
20260904085533 84 209 9.0 15.0 0.00 0.00 0.00 47 1008.6
20260904085032 85 199 9.0 17.0 0.00 0.00 0.00 46 1008.6
20260904084532 85 183 9.0 17.0 0.00 0.00 0.00 45 1008.6
20260904084031 85 185 8.0 16.0 0.00 0.00 0.00 40 1008.6
20260904083032 86 210 7.0 16.0 0.00 0.00 0.00 39 1008.5
20260904082531 86 200 9.0 16.0 0.00 0.00 0.00 39 1008.6
20260904082030 86 183 11.0 19.0 0.00 0.00 0.00 39 1008.6
20260904081530 87 234 12.0 19.0 0.00 0.00 0.00 38 1008.6
20260904081029 87 212 9.0 15.0 0.00 0.00 0.00 37 1008.7
20260904080527 87 198 7.0 14.0 0.00 0.00 0.00 36 1008.6
20260904080038 87 214 9.0 14.0 0.00 0.00 0.00 35 1008.5
20260904075527 87 194 9.0 14.0 0.00 0.00 0.00 35 1008.5
20260904075125 87 206 10.0 14.0 0.00 0.00 0.00 34 1008.5
20260904074530 87 198 8.0 15.0 0.00 0.00 0.00 33 1008.5
20260904074024 88 204 8.0 17.0 0.00 0.00 0.00 33 1008.5
20260904073018 88 208 11.0 17.0 0.00 0.00 0.00 33 1008.6
20260904072518 88 206 8.0 15.0 0.00 0.00 0.00 32 1008.6
20260904072021 88 202 10.0 15.0 0.00 0.00 0.00 32 1008.6
20260904071516 88 201 9.0 17.0 0.00 0.00 0.00 31 1008.7
20260904071017 88 202 12.0 19.0 0.00 0.00 0.00 31 1008.8
20260904070515 88 193 11.0 19.0 0.00 0.00 0.00 31 1008.9
20260904070015 88 204 12.0 22.0 0.00 0.00 0.00 30 1008.9
20260904065514 88 198 12.0 23.0 0.00 0.00 0.00 30 1009.0
20260904065013 88 187 8.0 14.0 0.00 0.00 0.00 30 1009.0
20260904064512 88 202 7.0 14.0 0.00 0.00 0.00 30 1008.9
20260904064012 89 212 7.0 13.0 0.00 0.00 0.00 30 1008.8
20260904063014 89 203 7.0 13.0 0.00 0.00 0.00 30 1008.8
20260904062507 89 181 8.0 13.0 0.00 0.00 0.00 29 1008.8
20260904062010 89 200 8.0 12.0 0.00 0.00 0.00 29 1008.7
20260904061519 89 207 8.0 13.0 0.00 0.00 0.00 29 1008.7
20260904061008 89 202 9.0 13.0 0.00 0.00 0.00 29 1008.7
20260904060509 89 198 8.0 12.0 0.00 0.00 0.00 29 1008.8
20260904060009 89 181 6.0 11.0 0.00 0.00 0.00 29 1008.7
20260904055507 88 189 5.0 9.0 0.00 0.00 0.00 29 1008.7
20260904055006 89 189 6.0 9.0 0.00 0.00 0.00 28 1008.7
20260904054511 89 204 4.0 10.0 0.00 0.00 0.00 28 1008.7
20260904054006 89 196 3.0 8.0 0.00 0.00 0.00 28 1008.6
20260904053006 89 191 3.0 8.0 0.00 0.00 0.00 28 1008.6
20260904052506 89 191 3.0 8.0 0.00 0.00 0.00 28 1008.7
20260904052005 89 195 4.0 8.0 0.00 0.00 0.00 28 1008.7
20260904051513 89 185 4.0 8.0 0.00 0.00 0.00 28 1008.7
20260904051003 89 194 4.0 8.0 0.00 0.00 0.00 28 1008.6
20260904050503 89 199 4.0 9.0 0.00 0.00 0.00 28 1008.6
20260904050002 89 194 5.0 9.0 0.00 0.00 0.00 29 1008.5
20260904045502 89 191 3.0 6.0 0.00 0.00 0.00 28 1008.5
20260904045004 89 188 3.0 6.0 0.00 0.00 0.00 28 1008.4
20260904044501 89 188 3.0 6.0 0.00 0.00 0.00 28 1008.5
20260904044004 89 191 3.0 8.0 0.00 0.00 0.00 28 1008.3
20260904043005 88 187 3.0 5.0 0.00 0.00 0.00 28 1008.3
20260904042506 88 187 3.0 4.0 0.00 0.00 0.00 28 1008.3
20260904042003 88 187 2.0 5.0 0.00 0.00 0.00 27 1008.2
20260904041502 88 187 3.0 5.0 0.00 0.00 0.00 27 1008.2
20260904041002 89 187 2.0 5.0 0.00 0.00 0.00 26 1008.2
20260904040503 89 187 3.0 5.0 0.00 0.00 0.00 26 1008.1
20260904040001 90 187 2.0 5.0 0.00 0.00 0.00 25 1008.1
20260904035502 90 186 3.0 5.0 0.00 0.00 0.00 25 1008.0
20260904035004 90 189 3.0 5.0 0.00 0.00 0.00 25 1008.0
20260904034501 90 189 2.0 5.0 0.00 0.00 0.00 25 1008.0
20260904034100 90 189 3.0 5.0 0.00 0.00 0.00 24 1008.0
20260904033103 91 189 2.0 6.0 0.00 0.00 0.00 24 1008.0
20260904032600 91 189 3.0 6.0 0.00 0.00 0.00 24 1007.9
20260904032100 91 189 3.0 5.0 0.00 0.00 0.00 24 1007.8
20260904031600 91 189 2.0 5.0 0.00 0.00 0.00 23 1007.8
20260904031100 92 189 1.0 4.0 0.00 0.00 0.00 23 1007.7
20260904030600 92 189 2.0 4.0 0.00 0.00 0.00 23 1007.7
20260904030059 92 189 2.0 8.0 0.00 0.00 0.00 22 1007.6
20260904025559 92 189 3.0 8.0 0.00 0.00 0.00 22 1007.5
20260904025059 92 188 4.0 8.0 0.00 0.00 0.00 22 1007.3
20260904024600 92 188 2.0 5.0 0.00 0.00 0.00 21 1007.2
20260904024058 92 188 2.0 4.0 0.00 0.00 0.00 21 1007.2
20260904023059 93 188 2.0 4.0 0.00 0.00 0.00 20 1007.0
20260904022559 93 188 2.0 4.0 0.00 0.00 0.00 20 1006.9
20260904022058 93 188 2.0 6.0 0.00 0.00 0.00 20 1006.9
20260904021559 94 188 2.0 6.0 0.00 0.00 0.00 19 1006.9
20260904021058 94 188 3.0 5.0 0.00 0.00 0.00 19 1006.7
20260904020559 94 188 2.0 5.0 0.00 0.00 0.00 19 1006.7
20260904020058 95 188 3.0 5.0 0.00 0.00 0.00 18 1006.7
20260904015558 95 188 3.0 6.0 0.00 0.00 0.00 18 1006.5
20260904015058 95 187 3.0 6.0 0.00 0.00 0.00 18 1006.5
20260904014616 95 198 3.0 4.0 0.00 0.00 0.00 18 1006.3
20260904014058 95 198 2.0 4.0 0.00 0.00 0.00 18 1006.3
20260904013058 96 198 3.0 5.0 0.00 0.00 0.00 17 1006.1
20260904012558 96 191 2.0 4.0 0.00 0.00 0.00 17 1006.2
20260904012057 97 191 1.0 4.0 0.00 0.00 0.00 17 1006.2
20260904011607 97 191 2.0 4.0 0.00 0.00 0.00 17 1006.1
20260904011057 98 191 2.0 4.0 0.00 0.00 0.00 17 1006.1
20260904010557 98 191 2.0 4.0 0.00 0.00 0.00 16 1006.1
20260904010056 98 191 3.0 5.0 0.00 0.00 0.00 16 1006.1
20260904005557 99 191 3.0 5.0 0.00 0.00 0.00 16 1006.1
20260904005056 99 191 3.0 5.0 0.00 0.00 0.00 16 1006.1
20260904004556 99 191 3.0 8.0 0.00 0.00 0.00 15 1006.0
20260904004056 100 150 2.0 8.0 0.00 0.00 0.00 16 1006.0
20260904003101 100 150 4.0 8.0 0.00 0.00 0.00 16 1006.1
20260904002556 100 182 4.0 8.0 0.00 0.00 0.00 15 1005.9
20260904002055 100 181 5.0 10.0 0.00 0.00 0.00 16 1006.0
20260904001555 100 202 5.0 10.0 0.00 0.00 0.00 16 1006.0
20260904001055 101 200 5.0 10.0 0.00 0.00 0.00 16 1006.0
20260904000554 101 185 6.0 10.0 0.00 0.00 0.00 16 1005.9
20260904000058 101 213 5.0 9.0 0.00 0.00 0.00 15 1006.0
20260903235555 101 156 4.0 7.0 0.00 0.00 0.00 15 1005.9
20260903235054 101 190 2.0 8.0 0.00 0.00 0.00 16 1005.8
20260903234554 101 193 4.0 8.0 0.00 0.00 0.00 16 1005.8
20260903234054 100 192 3.0 10.0 0.00 0.00 0.00 16 1005.9
20260903233054 101 204 6.0 11.0 0.00 0.00 0.00 15 1005.8
20260903232553 101 145 3.0 14.0 0.00 0.00 0.00 16 1005.8
20260903232054 101 199 8.0 14.0 0.00 0.00 0.00 15 1005.8
20260903231604 102 188 6.0 14.0 0.00 0.00 0.00 15 1005.9
20260903231054 102 160 9.0 14.0 0.00 0.00 0.00 14 1005.9
20260903230557 102 181 7.0 14.0 0.00 0.00 0.00 14 1005.9
20260903230101 102 205 5.0 9.0 0.00 0.00 0.00 14 1005.8
20260903225553 102 145 4.0 11.0 0.00 0.00 0.00 13 1005.8
20260903225055 102 140 4.0 11.0 0.00 0.00 0.00 13 1005.7
20260903224552 102 179 3.0 12.0 0.00 0.00 0.00 13 1005.7
20260903224052 103 185 3.0 8.0 0.00 0.00 0.00 12 1005.7
20260903223105 103 122 2.0 11.0 0.00 0.00 0.00 11 1005.7
20260903222552 103 72 4.0 13.0 0.00 0.00 0.00 12 1005.8
20260903222052 103 158 5.0 13.0 0.00 0.00 0.00 12 1005.8